User: anonymous   Login
Location: Erlenbrunn
(49.1717°N, 7.6142°E)
Time: 17:42:56
(UTC+00:00)
Language:

FENGYUN 1C DEB - Orbit

View from above orbital plane
View from above orbital plane
View from above satellite
View from above satellite

Ground track
Ground track

The orbit data is extracted from the following two-line orbital elements,

1 30900U 99025AYN 21172.84509088  .00000813  00000-0  44903-3 0  9997
2 30900  99.3357  37.6694 0078850  47.6344 313.1468 14.12925541734869
Epoch (UTC): 21 June 2021 20:16:55
Eccentricity: 0.0078850
inclination: 99.3357°
perigee height: 792 km
apogee height: 906 km
right ascension of ascending node: 37.6694°
argument of perigee: 47.6344°
revolutions per day: 14.12925541
mean anomaly at epoch: 313.1468°
orbit number at epoch: 73486

The dashed part of the orbit path shows where the satellite is in the earth's shadow,  

DLR